Location: Boiro
(42.6475°N, 8.8834°W)
Time: 03:29:39
(UTC+01:00)

Vanguard 1 Rocket - Pass Details

Date: 15 December 2021
Orbit: 651 x 4224 km, 34.3° (Epoch: 21 January)

Event Time Altitude Azimuth Distance (km) Brightness Sun altitude
Exits shadow 08:31:57 - 272° (W) 5,773 10.9 -5.1°
Rises 08:32:00 0° 272° (W) 5,767 10.9 -5.1°
Reaches altitude 10° 08:36:39 10° 257° (WSW) 5,302 10.8 -4.4°
Maximum altitude 08:47:49 22° 215° (SW) 5,420 11.3 -2.6°
Drops below altitude 10° 09:02:59 10° 176° (S) 7,246 12.6 -0.2°
Sets 09:11:30 0° 163° (SSE) 8,452 13.2 1.1°
